Time,TemperatureF,DewpointF,PressureIn,WindDirection,WindDirectionDegrees,WindSpeedMPH,WindSpeedGustMPH,Humidity,HourlyPrecipIn,Conditions,Clouds,dailyrainin,SoftwareType,DateUTC
2013-02-01 00:22:00,-6.0,-99.9,30.21,West,277,9.0,15.0,-999,-99.99,,,-99.99,,2013-02-01 06:22:00,
2013-02-01 00:52:00,-7.0,-99.9,30.22,West,271,10.0,17.0,-999,-99.99,,,-99.99,,2013-02-01 06:52:00,
2013-02-01 01:12:00,-8.0,-99.9,30.23,West,262,11.0,16.0,-999,-99.99,,,-99.99,,2013-02-01 07:12:00,
2013-02-01 01:52:00,-9.0,-99.9,30.24,West,259,13.0,17.0,-999,-99.99,,,-99.99,,2013-02-01 07:52:00,
2013-02-01 02:11:00,-9.0,-99.9,30.24,West,266,12.0,15.0,-999,-99.99,,,-99.99,,2013-02-01 08:11:00,
2013-02-01 02:52:00,-11.0,-99.9,30.26,West,265,11.0,15.0,-999,-99.99,,,-99.99,,2013-02-01 08:52:00,
2013-02-01 03:22:00,-12.0,-99.9,30.26,WSW,258,9.0,15.0,-999,-99.99,,,-99.99,,2013-02-01 09:22:00,
2013-02-01 03:42:00,-12.0,-99.9,30.26,WSW,245,11.0,14.0,-999,-99.99,,,-99.99,,2013-02-01 09:42:00,
2013-02-01 04:21:00,-13.0,-99.9,30.26,WSW,251,11.0,16.0,-999,-99.99,,,-99.99,,2013-02-01 10:21:00,
2013-02-01 04:43:00,-13.0,-99.9,30.27,WSW,249,9.0,12.0,-999,-99.99,,,-99.99,,2013-02-01 10:43:00,
2013-02-01 04:53:00,-14.0,-99.9,30.26,WSW,255,11.0,15.0,-999,-99.99,,,-99.99,,2013-02-01 10:53:00,
2013-02-01 05:22:00,-14.0,-99.9,30.26,SW,235,7.0,13.0,-999,-99.99,,,-99.99,,2013-02-01 11:22:00,
2013-02-01 05:42:00,-15.0,-99.9,30.26,WSW,255,7.0,11.0,-999,-99.99,,,-99.99,,2013-02-01 11:42:00,
2013-02-01 06:23:00,-15.0,-99.9,30.27,SW,229,9.0,15.0,-999,-99.99,,,-99.99,,2013-02-01 12:23:00,
2013-02-01 06:52:00,-16.0,-99.9,30.28,WSW,258,8.0,13.0,-999,-99.99,,,-99.99,,2013-02-01 12:52:00,
2013-02-01 07:12:00,-16.0,-99.9,30.28,WSW,257,10.0,12.0,-999,-99.99,,,-99.99,,2013-02-01 13:12:00,
2013-02-01 08:22:00,-16.0,-99.9,30.29,SW,234,10.0,17.0,-999,-99.99,,,-99.99,,2013-02-01 14:22:00,
2013-02-01 08:42:00,-16.0,-99.9,30.29,WSW,244,7.0,13.0,-999,-99.99,,,-99.99,,2013-02-01 14:42:00,
2013-02-01 09:52:00,-13.0,-99.9,30.28,West,272,9.0,11.0,-999,-99.99,,,-99.99,,2013-02-01 15:52:00,
2013-02-01 10:12:00,-12.0,-99.9,30.27,West,261,7.0,11.0,-999,-99.99,,,-99.99,,2013-02-01 16:12:00,
2013-02-01 11:22:00,-8.0,-99.9,30.25,SW,235,6.0,10.0,-999,-99.99,,,-99.99,,2013-02-01 17:22:00,
2013-02-01 11:42:00,-8.0,-99.9,30.25,WSW,250,8.0,11.0,-999,-99.99,,,-99.99,,2013-02-01 17:42:00,
2013-02-01 12:23:00,-6.0,-99.9,30.23,West,280,9.0,13.0,-999,-99.99,,,-99.99,,2013-02-01 18:23:00,
2013-02-01 12:42:00,-4.0,-99.9,30.22,West,265,8.0,14.0,-999,-99.99,,,-99.99,,2013-02-01 18:42:00,
2013-02-01 13:22:00,-3.0,-99.9,30.21,WSW,244,9.0,12.0,-999,-99.99,,,-99.99,,2013-02-01 19:22:00,
2013-02-01 13:52:00,-1.0,-99.9,30.19,SSW,210,8.0,10.0,-999,-99.99,,,-99.99,,2013-02-01 19:52:00,
2013-02-01 18:52:00,1.0,-99.9,30.14,SW,233,7.0,9.0,-999,-99.99,,,-99.99,,2013-02-02 00:52:00,
2013-02-01 19:11:00,1.0,-99.9,30.14,WSW,250,8.0,11.0,-999,-99.99,,,-99.99,,2013-02-02 01:11:00,
2013-02-01 19:52:00,1.0,-99.9,30.14,WSW,250,8.0,10.0,-999,-99.99,,,-99.99,,2013-02-02 01:52:00,
2013-02-01 20:22:00,1.0,-99.9,30.14,WSW,248,6.0,9.0,-999,-99.99,,,-99.99,,2013-02-02 02:22:00,
2013-02-01 20:42:00,1.0,-99.9,30.14,WSW,252,9.0,11.0,-999,-99.99,,,-99.99,,2013-02-02 02:42:00,
2013-02-01 21:22:00,1.0,-99.9,30.14,WSW,246,7.0,11.0,-999,-99.99,,,-99.99,,2013-02-02 03:22:00,
2013-02-01 21:52:00,1.0,-99.9,30.14,SSW,213,9.0,11.0,-999,-99.99,,,-99.99,,2013-02-02 03:52:00,
2013-02-01 22:11:00,1.0,-99.9,30.14,SW,236,9.0,12.0,-999,-99.99,,,-99.99,,2013-02-02 04:11:00,